Waukesha, WI

2:53 PM CDT on September 24, 2017 (GMT -0500)
Waukesha County

Weather History for KUES - April, 2013

Change the Weather History Date:

Friday, April 26, 2013

  Actual Average Record
Temperature  
Mean Temperature 48 °F -  
Max Temperature 64 °F 62 °F 85 °F (1962)
Min Temperature 33 °F 38 °F 29 °F (1976)
Degree Days  
Heating Degree Days 16    
Moisture  
Dew Point 35 °F    
Average Humidity 63    
Maximum Humidity 81    
Minimum Humidity 39    
Precipitation  
Precipitation 0.00 in - - ()
Sea Level Pressure  
Sea Level Pressure 30.26 in    
Wind  
Wind Speed 8 mph (South)    
Max Wind Speed 21 mph    
Max Gust Speed 36 mph    
Visibility 10 miles    
Events      
Averages and records for this station are not official NWS values.
T = Trace of Precipitation, MM = Missing Value Source: NWS Daily Summary

Daily Weather History Graph

Daily Weather History Graph

Search for Another Location

Airport or City:

Trip Planner

Search our weather history database for the weather conditions in past years. The results will help you decide how hot, cold, wet, or windy it might be!

Date:

Astronomy

Apr. 26, 2013 Rise Set
Actual Time 5:53 AM CDT 7:48 PM CDT
Civil Twilight 5:22 AM CDT 8:19 PM CDT
Nautical Twilight 4:45 AM CDT 8:56 PM CDT
Astronomical Twilight 4:05 AM CDT 9:37 PM CDT
Moon 9:13 PM CDT (4/26) 6:19 AM CDT (4/26)
Length of Visible Light 14h 56m
Length of Day
13h 55m
Full, 99% of the Moon is Illuminated
Apr 26
Full
May 2
Last Quarter
May 9
New
May 17
First Quarter
May 24
Full

Hourly Weather History & Observations

Time (CDT) Temp. Windchill Dew Point Humidity Pressure Visibility Wind Dir Wind Speed Gust Speed Precip Events Conditions
12:15 AM 37.4 °F 34.9 °F 30.2 °F 75% 30.30 in 10.0 mi South 3.5 mph - N/A   Clear
12:35 AM 33.8 °F 30.8 °F 28.4 °F 81% 30.30 in 10.0 mi South 3.5 mph - N/A   Clear
12:55 AM 35.6 °F 31.7 °F 30.2 °F 81% 30.30 in 10.0 mi South 4.6 mph - N/A   Clear
1:15 AM 37.4 °F 33.8 °F 30.2 °F 75% 30.30 in 10.0 mi South 4.6 mph - N/A   Clear
1:35 AM 35.6 °F 30.7 °F 30.2 °F 81% 30.30 in 10.0 mi South 5.8 mph - N/A   Clear
2:15 AM 35.6 °F 29.9 °F 28.4 °F 75% 30.29 in 10.0 mi South 6.9 mph - N/A   Clear
2:35 AM 35.6 °F 29.9 °F 28.4 °F 75% 30.29 in 10.0 mi South 6.9 mph - N/A   Clear
2:55 AM 35.6 °F 29.9 °F 28.4 °F 75% 30.29 in 10.0 mi South 6.9 mph - N/A   Clear
3:15 AM 35.6 °F 29.9 °F 28.4 °F 75% 30.29 in 10.0 mi South 6.9 mph - N/A   Clear
3:35 AM 35.6 °F 30.7 °F 28.4 °F 75% 30.29 in 10.0 mi South 5.8 mph - N/A   Clear
3:55 AM 35.6 °F 29.9 °F 28.4 °F 75% 30.29 in 10.0 mi South 6.9 mph - N/A   Clear
4:15 AM 35.6 °F 29.2 °F 26.6 °F 70% 30.30 in 10.0 mi South 8.1 mph - N/A   Clear
4:35 AM 35.6 °F 29.9 °F 26.6 °F 70% 30.29 in 10.0 mi South 6.9 mph - N/A   Clear
4:55 AM 35.6 °F 30.7 °F 26.6 °F 70% 30.29 in 10.0 mi South 5.8 mph - N/A   Mostly Cloudy
5:15 AM 35.6 °F 30.7 °F 28.4 °F 75% 30.29 in 10.0 mi SSE 5.8 mph - N/A   Overcast
5:35 AM 35.6 °F 31.7 °F 26.6 °F 70% 30.29 in 10.0 mi South 4.6 mph - N/A   Mostly Cloudy
5:45 AM 37.4 °F 32.8 °F 26.6 °F 65% 30.30 in 10.0 mi South 5.8 mph - N/A   Overcast
6:45 AM 39.2 °F 33.6 °F 26.6 °F 61% 30.31 in 10.0 mi SSW 8.1 mph - N/A   Overcast
7:45 AM 41.0 °F 35.2 °F 28.4 °F 61% 30.30 in 10.0 mi South 9.2 mph - N/A   Mostly Cloudy
8:45 AM 46.4 °F 40.4 °F 30.2 °F 53% 30.27 in 10.0 mi South 13.8 mph - N/A   Scattered Clouds
9:45 AM 51.8 °F - 33.8 °F 50% 30.27 in 10.0 mi South 16.1 mph - N/A   Scattered Clouds
10:45 AM 57.2 °F - 35.6 °F 44% 30.27 in 10.0 mi South 16.1 mph - N/A   Scattered Clouds
11:45 AM 62.6 °F - 37.4 °F 39% 30.24 in 10.0 mi South 13.8 mph - N/A   Clear
12:45 PM 62.6 °F - 37.4 °F 39% 30.23 in 10.0 mi South 20.7 mph 35.7 mph N/A   Clear
1:45 PM 62.6 °F - 41.0 °F 45% 30.21 in 10.0 mi South 15.0 mph 25.3 mph N/A   Clear
2:45 PM 64.4 °F - 42.8 °F 45% 30.20 in 10.0 mi SSW 20.7 mph 27.6 mph N/A   Clear
3:45 PM 64.4 °F - 42.8 °F 45% 30.19 in 10.0 mi South 17.3 mph 25.3 mph N/A   Partly Cloudy
4:45 PM 64.4 °F - 44.6 °F 49% 30.18 in 10.0 mi South 17.3 mph 25.3 mph N/A   Scattered Clouds
5:45 PM 64.4 °F - 42.8 °F 45% 30.19 in 10.0 mi SSW 17.3 mph 23.0 mph N/A   Mostly Cloudy
6:45 PM 62.6 °F - 42.8 °F 48% 30.19 in 10.0 mi SSW 13.8 mph 23.0 mph N/A   Scattered Clouds
7:45 PM 60.8 °F - 42.8 °F 52% 30.21 in 10.0 mi SSW 12.7 mph 19.6 mph N/A   Clear
8:45 PM 57.2 °F - 42.8 °F 59% 30.23 in 10.0 mi SSW 11.5 mph - N/A   Clear
9:15 PM 55.4 °F - 41.0 °F 58% 30.25 in 10.0 mi SSW 11.5 mph 16.1 mph N/A   Clear
9:35 PM 55.4 °F - 41.0 °F 58% 30.25 in 10.0 mi SSW 10.4 mph 16.1 mph N/A   Clear
9:55 PM 53.6 °F - 41.0 °F 62% 30.26 in 10.0 mi SW 9.2 mph - N/A   Clear
10:15 PM 53.6 °F - 41.0 °F 62% 30.25 in 10.0 mi SSW 10.4 mph - N/A   Clear
10:35 PM 53.6 °F - 41.0 °F 62% 30.25 in 10.0 mi SSW 9.2 mph 16.1 mph N/A   Clear
10:55 PM 53.6 °F - 42.8 °F 67% 30.25 in 10.0 mi SSW 10.4 mph - N/A   Clear
11:15 PM 51.8 °F - 42.8 °F 71% 30.25 in 10.0 mi SSW 6.9 mph - N/A   Clear
11:35 PM 51.8 °F - 42.8 °F 71% 30.25 in 10.0 mi SSW 9.2 mph - N/A   Clear
11:55 PM 51.8 °F - 42.8 °F 71% 30.26 in 10.0 mi SSW 10.4 mph - N/A   Clear